Oxford, NC

9:26 AM EST on November 12, 2019 (GMT -0500)
Henderson-Oxford

Weather History for KHNZ - June, 2019

Change the Weather History Date:

Sunday, June 9, 2019

  Actual Average (WUND) Record (WUND)
Temperature  
Mean Temperature 71 °F -  
Max Temperature 77 °F - - (-1)
Min Temperature 65 °F - - (-1)
Cooling Degree Days 6    
Growing Degree Days 21 (Base 50)    
Moisture  
Dew Point 67 °F    
Average Humidity 93    
Maximum Humidity 98    
Minimum Humidity 74    
Precipitation  
Precipitation 0.35 in - - ()
Sea Level Pressure  
Sea Level Pressure 30.04 in    
Wind  
Wind Speed 5 mph (NE)    
Max Wind Speed 9 mph    
Max Gust Speed 17 mph    
Visibility 7 miles    
Events Rain    
Averages and records for this station are not official NWS values.
T = Trace of Precipitation, MM = Missing Value Source: NWS Daily Summary

Daily Weather History Graph

Daily Weather History Graph

Search for Another Location

Airport or City:

Astronomy

Jun. 09, 2019 Rise Set
Actual Time 5:55 AM EDT 8:30 PM EDT
Civil Twilight 5:25 AM EDT 9:01 PM EDT
Nautical Twilight 4:48 AM EDT 9:38 PM EDT
Astronomical Twilight 4:06 AM EDT 10:20 PM EDT
Moon 12:26 PM EDT (6/9) 1:15 AM EDT (6/9)
Length of Visible Light 15h 35m
Length of Day
14h 34m
Waxing Crescent, 43% of the Moon is Illuminated
Jun 9
Waxing Crescent
Jun 10
First Quarter
Jun 17
Full
Jun 25
Last Quarter
Jul 2
New

Hourly Weather History & Observations

Time (EDT) Temp. Dew Point Humidity Pressure Visibility Wind Dir Wind Speed Gust Speed Precip Events Conditions
12:00 AM 67.3 °F 65.3 °F 93% 30.06 in 10.0 mi ENE 8.1 mph - N/A   Overcast
12:20 AM 67.1 °F 65.3 °F 94% 30.06 in 10.0 mi ENE 8.1 mph - N/A   Overcast
12:40 AM 67.1 °F 65.5 °F 95% 30.06 in 10.0 mi ENE 9.2 mph - N/A   Overcast
1:00 AM 67.1 °F 65.3 °F 94% 30.06 in 10.0 mi NE 6.9 mph - N/A   Overcast
1:20 AM 66.4 °F 65.1 °F 96% 30.05 in 10.0 mi ENE 9.2 mph - N/A   Mostly Cloudy
1:40 AM 66.7 °F 65.3 °F 95% 30.05 in 10.0 mi ENE 6.9 mph - N/A   Overcast
2:00 AM 67.1 °F 64.9 °F 93% 30.05 in 10.0 mi ENE 8.1 mph 17.3 mph N/A   Overcast
2:20 AM 67.1 °F 64.9 °F 93% 30.04 in 10.0 mi ENE 6.9 mph - N/A   Overcast
2:40 AM 67.1 °F 65.3 °F 94% 30.04 in 10.0 mi ENE 6.9 mph - N/A   Overcast
3:00 AM 67.1 °F 65.3 °F 94% 30.04 in 10.0 mi ENE 6.9 mph - N/A   Overcast
3:20 AM 67.1 °F 65.3 °F 94% 30.04 in 10.0 mi ENE 5.8 mph - N/A   Overcast
3:40 AM 67.1 °F 65.3 °F 94% 30.03 in 10.0 mi ENE 8.1 mph - N/A   Overcast
4:00 AM 66.6 °F 64.9 °F 95% 30.02 in 10.0 mi NE 6.9 mph - N/A   Overcast
4:20 AM 66.4 °F 65.3 °F 96% 30.02 in 5.0 mi NE 4.6 mph - N/A   Overcast
4:40 AM 66.2 °F 65.3 °F 97% 30.02 in 3.0 mi NE 4.6 mph - N/A Rain Light Rain
5:00 AM 66.2 °F 65.3 °F 97% 30.02 in 2.5 mi NE 5.8 mph - 0.01 in   Drizzle
5:20 AM 65.8 °F 65.3 °F 98% 30.02 in 3.0 mi NE 4.6 mph - 0.02 in   Drizzle
5:40 AM 65.8 °F 65.3 °F 98% 30.03 in 3.0 mi NE 5.8 mph - 0.02 in   Light Drizzle
6:00 AM 65.8 °F 65.3 °F 98% 30.04 in 3.0 mi NE 5.8 mph - 0.01 in Rain Rain
6:20 AM 65.8 °F 65.3 °F 98% 30.04 in 2.5 mi NE 5.8 mph - 0.02 in   Drizzle
6:40 AM 65.8 °F 65.3 °F 98% 30.05 in 3.0 mi ENE 4.6 mph - 0.02 in   Overcast
7:00 AM 65.7 °F 64.9 °F 98% 30.05 in 2.0 mi NE 4.6 mph - N/A Rain Rain
7:20 AM 65.3 °F 64.6 °F 98% 30.06 in 3.0 mi NNE 4.6 mph - 0.01 in   Overcast
7:40 AM 65.5 °F 64.8 °F 98% 30.06 in 3.0 mi Calm Calm - 0.01 in   Overcast
8:00 AM 65.3 °F 64.6 °F 98% 30.07 in 4.0 mi NNE 5.8 mph - N/A   Overcast
8:20 AM 65.7 °F 64.8 °F 97% 30.06 in 5.0 mi NNE 4.6 mph - N/A   Overcast
8:40 AM 65.5 °F 64.6 °F 97% 30.07 in 7.0 mi North 3.5 mph - N/A   Overcast
9:00 AM 65.5 °F 64.4 °F 96% 30.07 in 7.0 mi NNE 3.5 mph - N/A   Overcast
9:20 AM 65.7 °F 64.6 °F 96% 30.07 in 5.0 mi North 3.5 mph - N/A   Overcast
9:40 AM 65.7 °F 64.8 °F 97% 30.07 in 3.0 mi North 4.6 mph - N/A   Overcast
10:00 AM 65.8 °F 64.9 °F 97% 30.07 in 3.0 mi NNE 5.8 mph - N/A   Overcast
10:20 AM 66.2 °F 64.9 °F 96% 30.06 in 3.0 mi NNE 4.6 mph - N/A   Overcast
10:40 AM 66.4 °F 65.3 °F 96% 30.06 in 2.5 mi NNE 5.8 mph - N/A   Overcast
11:00 AM 66.6 °F 65.5 °F 96% 30.06 in 3.0 mi North 4.6 mph - N/A   Overcast
11:20 AM 66.6 °F 65.3 °F 96% 30.06 in 7.0 mi NNE 5.8 mph - N/A   Overcast
11:40 AM 67.1 °F 65.5 °F 95% 30.07 in 10.0 mi NE 5.8 mph - N/A   Overcast
12:00 PM 67.3 °F 65.7 °F 95% 30.06 in 7.0 mi NNE 4.6 mph - N/A   Overcast
12:20 PM 68.0 °F 66.6 °F 95% 30.06 in 5.0 mi NE 4.6 mph - N/A   Mist
12:40 PM 68.4 °F 66.4 °F 93% 30.06 in 7.0 mi NE 4.6 mph - N/A   Unknown
1:00 PM 67.6 °F 66.0 °F 95% 30.06 in 7.0 mi NE 3.5 mph - N/A   Unknown
1:20 PM 67.8 °F 66.2 °F 95% 30.06 in 5.0 mi NNE 5.8 mph - N/A   Mist
1:40 PM 68.0 °F 66.0 °F 93% 30.06 in 5.0 mi NE 3.5 mph - N/A   Overcast
2:00 PM 68.4 °F 66.4 °F 93% 30.06 in 5.0 mi NNE 3.5 mph - N/A   Overcast
2:20 PM 68.9 °F 67.1 °F 94% 30.05 in 7.0 mi Calm Calm - N/A   Overcast
2:40 PM 69.1 °F 66.7 °F 92% 30.04 in 10.0 mi NNE 3.5 mph - N/A   Overcast
3:00 PM 70.0 °F 66.7 °F 89% 30.04 in 10.0 mi NNE 4.6 mph - N/A   Overcast
3:20 PM 70.2 °F 66.9 °F 89% 30.04 in 10.0 mi Calm Calm - N/A   Overcast
3:40 PM 72.7 °F 68.0 °F 85% 30.04 in 10.0 mi North 5.8 mph - N/A   Overcast
4:00 PM 73.8 °F 67.6 °F 81% 30.03 in 10.0 mi North 3.5 mph - N/A   Overcast
4:20 PM 74.5 °F 68.4 °F 81% 30.02 in 10.0 mi North 4.6 mph - N/A   Mostly Cloudy
4:40 PM 76.1 °F 68.2 °F 76% 30.02 in 10.0 mi NNE 5.8 mph - N/A   Scattered Clouds
5:00 PM 74.7 °F 67.1 °F 77% 30.02 in 10.0 mi Calm Calm - N/A   Mostly Cloudy
5:20 PM 74.8 °F 68.0 °F 79% 30.01 in 10.0 mi North 3.5 mph - N/A   Mostly Cloudy
5:40 PM 77.4 °F 68.5 °F 74% 30.01 in 10.0 mi NE 6.9 mph - N/A   Scattered Clouds
6:00 PM 76.1 °F 68.0 °F 76% 30.01 in 10.0 mi NE 4.6 mph - N/A   Scattered Clouds
6:20 PM 74.7 °F 68.2 °F 80% 30.01 in 10.0 mi NE 3.5 mph - N/A Rain Light Rain
6:40 PM 73.2 °F 69.4 °F 88% 30.00 in 10.0 mi Calm Calm - N/A Rain Light Rain
7:00 PM 72.5 °F 69.8 °F 91% 30.01 in 10.0 mi Calm Calm - N/A Rain Light Rain
7:20 PM 72.5 °F 70.0 °F 92% 30.01 in 10.0 mi Calm Calm - N/A   Scattered Clouds
7:40 PM 72.0 °F 70.0 °F 93% 30.01 in 10.0 mi Calm Calm - N/A   Scattered Clouds
8:00 PM 70.3 °F 68.9 °F 95% 30.02 in 1.0 mi East 8.1 mph - 0.09 in Rain Heavy Rain
8:20 PM 69.8 °F 68.4 °F 95% 30.02 in 3.0 mi Calm Calm - 0.25 in Rain Light Rain
8:40 PM 69.4 °F 68.4 °F 96% 30.02 in 10.0 mi Calm Calm - 0.25 in Rain Light Rain
9:00 PM 69.4 °F 68.9 °F 98% 30.02 in 7.0 mi Calm Calm - N/A   Mostly Cloudy
9:20 PM 69.4 °F 68.9 °F 98% 30.02 in 7.0 mi Calm Calm - 0.01 in   Light Drizzle
9:40 PM 69.3 °F 68.5 °F 98% 30.02 in 7.0 mi Calm Calm - 0.01 in Rain Rain
10:00 PM 69.3 °F 68.5 °F 98% 30.03 in 4.0 mi Calm Calm - 0.02 in Rain Rain
10:20 PM 69.4 °F 68.9 °F 98% 30.03 in 7.0 mi Calm Calm - 0.04 in Rain Light Rain
10:40 PM 69.4 °F 68.9 °F 98% 30.02 in 10.0 mi Calm Calm - 0.04 in   Light Drizzle
11:00 PM 69.8 °F 69.1 °F 98% 30.02 in 10.0 mi Calm Calm - N/A   Overcast
11:20 PM 69.8 °F 69.1 °F 98% 30.02 in 10.0 mi Calm Calm - N/A   Light Drizzle
11:40 PM 69.8 °F 68.9 °F 97% 30.01 in 10.0 mi SSE 3.5 mph - N/A   Overcast